Time,TemperatureF,DewpointF,PressureIn,WindDirection,WindDirectionDegrees,WindSpeedMPH,WindSpeedGustMPH,Humidity,HourlyPrecipIn,Conditions,Clouds,dailyrainin,SoftwareType,DateUTC
2013-10-24 00:00:00,46.6,43.5,29.94,ESE,104,0.0,0.0,89,0.00,,---,0.00,VWS V14.01,2013-10-24 07:00:00,
2013-10-24 00:01:00,46.6,43.5,29.94,ESE,104,0.0,0.0,89,0.00,,---,0.00,VWS V14.01,2013-10-24 07:01:00,
2013-10-24 00:06:00,46.5,43.4,29.94,ESE,104,0.0,0.0,89,0.00,,---,0.00,VWS V14.01,2013-10-24 07:06:00,
2013-10-24 00:10:00,46.3,43.2,29.94,ESE,104,0.0,0.0,89,0.00,,---,0.00,VWS V14.01,2013-10-24 07:10:00,
2013-10-24 00:11:00,46.4,43.3,29.94,ESE,105,0.0,0.0,89,0.00,,---,0.00,VWS V14.01,2013-10-24 07:11:00,
2013-10-24 00:16:00,46.2,43.1,29.94,ESE,105,0.0,0.0,89,0.00,,---,0.00,VWS V14.01,2013-10-24 07:16:00,
2013-10-24 00:20:00,46.1,43.0,29.94,ESE,105,0.0,0.0,89,0.00,,---,0.00,VWS V14.01,2013-10-24 07:20:00,
2013-10-24 00:21:00,46.1,43.0,29.94,ESE,105,0.0,0.0,89,0.00,,---,0.00,VWS V14.01,2013-10-24 07:21:00,
2013-10-24 00:26:00,46.0,43.0,29.94,ESE,105,0.0,0.0,89,0.00,,---,0.00,VWS V14.01,2013-10-24 07:26:00,
2013-10-24 00:30:00,45.9,42.8,29.94,ESE,105,0.0,0.0,89,0.00,,---,0.00,VWS V14.01,2013-10-24 07:30:00,
2013-10-24 00:31:00,45.9,42.8,29.94,ESE,104,0.0,0.0,89,0.00,,---,0.00,VWS V14.01,2013-10-24 07:31:00,
2013-10-24 00:36:00,45.7,42.7,29.94,ESE,104,0.0,0.0,89,0.00,,---,0.00,VWS V14.01,2013-10-24 07:36:00,
2013-10-24 00:40:00,45.6,42.5,29.94,ESE,104,0.0,0.0,89,0.00,,---,0.00,VWS V14.01,2013-10-24 07:40:00,
2013-10-24 00:41:00,45.6,42.5,29.94,ESE,105,0.0,0.0,89,0.00,,---,0.00,VWS V14.01,2013-10-24 07:41:00,
2013-10-24 00:46:00,45.5,42.7,29.94,ESE,105,0.0,0.0,90,0.00,,---,0.00,VWS V14.01,2013-10-24 07:46:00,
2013-10-24 00:50:00,45.3,42.5,29.94,ESE,105,0.0,0.0,90,0.00,,---,0.00,VWS V14.01,2013-10-24 07:50:00,
2013-10-24 00:51:00,45.3,42.5,29.94,ESE,104,0.0,0.0,90,0.00,,---,0.00,VWS V14.01,2013-10-24 07:51:00,
2013-10-24 00:56:00,45.2,42.2,29.94,ESE,105,0.0,0.0,89,0.00,,---,0.00,VWS V14.01,2013-10-24 07:56:00,
2013-10-24 01:00:00,45.1,42.3,29.95,ESE,105,0.0,0.0,90,0.00,,---,0.00,VWS V14.01,2013-10-24 08:00:00,
2013-10-24 01:01:00,45.1,42.3,29.95,ESE,105,0.0,0.0,90,0.00,,---,0.00,VWS V14.01,2013-10-24 08:01:00,
2013-10-24 01:06:00,45.0,42.2,29.94,ESE,104,0.0,0.0,90,0.00,,---,0.00,VWS V14.01,2013-10-24 08:06:00,
2013-10-24 01:10:00,45.0,42.2,29.94,ESE,104,0.0,0.0,90,0.00,,---,0.00,VWS V14.01,2013-10-24 08:10:00,
2013-10-24 01:11:00,45.0,42.2,29.94,ESE,105,0.0,0.0,90,0.00,,---,0.00,VWS V14.01,2013-10-24 08:11:00,
2013-10-24 01:16:00,45.1,42.3,29.94,ESE,105,0.0,0.0,90,0.00,,---,0.00,VWS V14.01,2013-10-24 08:16:00,
2013-10-24 01:20:00,45.1,42.3,29.94,ESE,105,0.0,0.0,90,0.00,,---,0.00,VWS V14.01,2013-10-24 08:20:00,
2013-10-24 01:21:00,45.0,42.2,29.94,ESE,105,0.0,0.0,90,0.00,,---,0.00,VWS V14.01,2013-10-24 08:21:00,
2013-10-24 01:26:00,45.1,42.6,29.94,ESE,104,0.0,0.0,91,0.00,,---,0.00,VWS V14.01,2013-10-24 08:26:00,
2013-10-24 01:31:00,45.0,42.2,29.94,ESE,105,0.0,0.0,90,0.00,,---,0.00,VWS V14.01,2013-10-24 08:31:00,
2013-10-24 01:36:00,45.0,42.2,29.94,ESE,105,0.0,0.0,90,0.00,,---,0.00,VWS V14.01,2013-10-24 08:36:00,
2013-10-24 01:40:00,45.0,42.5,29.94,ESE,105,0.0,0.0,91,0.00,,---,0.00,VWS V14.01,2013-10-24 08:40:00,
2013-10-24 01:41:00,45.0,42.5,29.94,ESE,104,0.0,0.0,91,0.00,,---,0.00,VWS V14.01,2013-10-24 08:41:00,
2013-10-24 01:46:00,45.0,42.2,29.94,ESE,104,0.0,0.0,90,0.00,,---,0.00,VWS V14.01,2013-10-24 08:46:00,
2013-10-24 01:50:00,44.8,42.0,29.95,ESE,104,0.0,0.0,90,0.00,,---,0.00,VWS V14.01,2013-10-24 08:50:00,
2013-10-24 01:51:00,44.8,42.0,29.94,ESE,104,0.0,0.0,90,0.00,,---,0.00,VWS V14.01,2013-10-24 08:51:00,
2013-10-24 01:56:00,44.7,42.2,29.95,ESE,104,0.0,0.0,91,0.00,,---,0.00,VWS V14.01,2013-10-24 08:56:00,
2013-10-24 02:00:00,44.7,42.2,29.94,ESE,104,0.0,0.0,91,0.00,,---,0.00,VWS V14.01,2013-10-24 09:00:00,
2013-10-24 02:01:00,44.7,42.2,29.94,ESE,104,0.0,0.0,91,0.00,,---,0.00,VWS V14.01,2013-10-24 09:01:00,
2013-10-24 02:06:00,44.7,42.2,29.94,ESE,104,0.0,0.0,91,0.00,,---,0.00,VWS V14.01,2013-10-24 09:06:00,
2013-10-24 02:10:00,44.8,42.3,29.94,ESE,105,0.0,0.0,91,0.00,,---,0.00,VWS V14.01,2013-10-24 09:10:00,
2013-10-24 02:11:00,44.8,42.3,29.95,ESE,104,0.0,0.0,91,0.00,,---,0.00,VWS V14.01,2013-10-24 09:11:00,
2013-10-24 02:16:00,45.0,42.5,29.95,ESE,104,0.0,0.0,91,0.00,,---,0.00,VWS V14.01,2013-10-24 09:16:00,
2013-10-24 02:20:00,45.0,42.5,29.95,ESE,104,0.0,0.0,91,0.00,,---,0.00,VWS V14.01,2013-10-24 09:20:00,
2013-10-24 02:21:00,45.0,42.5,29.95,ESE,105,0.0,0.0,91,0.00,,---,0.00,VWS V14.01,2013-10-24 09:21:00,
2013-10-24 02:26:00,45.2,43.0,29.95,ESE,105,0.0,0.0,92,0.00,,---,0.00,VWS V14.01,2013-10-24 09:26:00,
2013-10-24 02:30:00,45.4,43.2,29.95,ESE,105,0.0,0.0,92,0.00,,---,0.00,VWS V14.01,2013-10-24 09:30:00,
2013-10-24 02:31:00,45.4,43.2,29.95,ESE,104,0.0,0.0,92,0.00,,---,0.00,VWS V14.01,2013-10-24 09:31:00,
2013-10-24 02:36:00,45.5,43.3,29.95,ESE,104,0.0,0.0,92,0.00,,---,0.00,VWS V14.01,2013-10-24 09:36:00,
2013-10-24 02:40:00,45.8,43.6,29.95,ESE,104,0.0,0.0,92,0.00,,---,0.00,VWS V14.01,2013-10-24 09:40:00,
2013-10-24 02:41:00,45.7,43.5,29.95,ESE,104,0.0,0.0,92,0.00,,---,0.00,VWS V14.01,2013-10-24 09:41:00,
2013-10-24 02:46:00,45.9,43.7,29.95,ESE,104,0.0,0.0,92,0.00,,---,0.00,VWS V14.01,2013-10-24 09:46:00,
2013-10-24 02:50:00,46.1,43.9,29.95,WSW,246,1.0,1.0,92,0.00,,---,0.00,VWS V14.01,2013-10-24 09:50:00,
2013-10-24 02:51:00,46.0,43.8,29.95,ESE,104,0.0,0.0,92,0.00,,---,0.00,VWS V14.01,2013-10-24 09:51:00,
2013-10-24 02:56:00,46.4,44.2,29.95,West,265,0.0,1.0,92,0.00,,---,0.00,VWS V14.01,2013-10-24 09:56:00,
2013-10-24 03:00:00,46.7,44.8,29.95,West,265,0.0,1.0,93,0.00,,---,0.00,VWS V14.01,2013-10-24 10:00:00,
2013-10-24 03:01:00,46.7,44.8,29.95,West,265,0.0,1.0,93,0.00,,---,0.00,VWS V14.01,2013-10-24 10:01:00,
2013-10-24 03:06:00,46.9,45.0,29.95,West,265,0.0,0.0,93,0.00,,---,0.00,VWS V14.01,2013-10-24 10:06:00,
2013-10-24 03:10:00,47.0,45.1,29.94,West,265,0.0,0.0,93,0.00,,---,0.00,VWS V14.01,2013-10-24 10:10:00,
2013-10-24 03:11:00,47.0,45.1,29.94,West,265,0.0,0.0,93,0.00,,---,0.00,VWS V14.01,2013-10-24 10:11:00,
2013-10-24 03:16:00,47.3,45.4,29.94,West,265,0.0,0.0,93,0.00,,---,0.00,VWS V14.01,2013-10-24 10:16:00,
2013-10-24 03:20:00,47.4,45.5,29.94,West,265,0.0,0.0,93,0.00,,---,0.00,VWS V14.01,2013-10-24 10:20:00,
2013-10-24 03:21:00,47.4,45.5,29.94,West,265,0.0,0.0,93,0.00,,---,0.00,VWS V14.01,2013-10-24 10:21:00,
2013-10-24 03:26:00,47.4,45.5,29.94,West,265,0.0,0.0,93,0.00,,---,0.00,VWS V14.01,2013-10-24 10:26:00,
2013-10-24 03:30:00,47.4,45.5,29.95,West,265,0.0,0.0,93,0.00,,---,0.00,VWS V14.01,2013-10-24 10:30:00,
2013-10-24 03:31:00,47.4,45.5,29.94,West,265,0.0,0.0,93,0.00,,---,0.00,VWS V14.01,2013-10-24 10:31:00,
2013-10-24 03:36:00,47.4,45.5,29.94,West,265,0.0,0.0,93,0.00,,---,0.00,VWS V14.01,2013-10-24 10:36:00,
2013-10-24 03:40:00,47.5,45.6,29.95,West,265,0.0,0.0,93,0.00,,---,0.00,VWS V14.01,2013-10-24 10:40:00,
2013-10-24 03:41:00,47.5,45.6,29.95,West,265,0.0,0.0,93,0.00,,---,0.00,VWS V14.01,2013-10-24 10:41:00,
2013-10-24 03:46:00,47.6,45.7,29.95,West,265,0.0,0.0,93,0.00,,---,0.00,VWS V14.01,2013-10-24 10:46:00,
2013-10-24 03:50:00,47.6,45.7,29.94,West,265,0.0,0.0,93,0.00,,---,0.00,VWS V14.01,2013-10-24 10:50:00,
2013-10-24 03:51:00,47.6,45.7,29.94,West,265,0.0,0.0,93,0.00,,---,0.00,VWS V14.01,2013-10-24 10:51:00,
2013-10-24 03:56:00,47.6,45.7,29.94,West,265,0.0,0.0,93,0.00,,---,0.00,VWS V14.01,2013-10-24 10:56:00,
2013-10-24 04:00:00,47.7,45.8,29.94,West,265,0.0,0.0,93,0.00,,---,0.00,VWS V14.01,2013-10-24 11:00:00,
2013-10-24 04:01:00,47.7,45.8,29.94,West,265,0.0,0.0,93,0.00,,---,0.00,VWS V14.01,2013-10-24 11:01:00,
2013-10-24 04:06:00,47.7,45.8,29.94,West,265,0.0,0.0,93,0.00,,---,0.00,VWS V14.01,2013-10-24 11:06:00,
2013-10-24 04:10:00,47.7,45.8,29.94,West,265,0.0,0.0,93,0.00,,---,0.00,VWS V14.01,2013-10-24 11:10:00,
2013-10-24 04:11:00,47.7,45.8,29.94,West,265,0.0,0.0,93,0.00,,---,0.00,VWS V14.01,2013-10-24 11:11:00,
2013-10-24 04:16:00,47.7,45.8,29.94,West,265,0.0,0.0,93,0.00,,---,0.00,VWS V14.01,2013-10-24 11:16:00,
2013-10-24 04:20:00,47.7,45.8,29.94,West,265,0.0,0.0,93,0.00,,---,0.00,VWS V14.01,2013-10-24 11:20:00,
2013-10-24 04:21:00,47.7,45.8,29.94,West,265,0.0,0.0,93,0.00,,---,0.00,VWS V14.01,2013-10-24 11:21:00,
2013-10-24 04:25:00,47.7,45.8,29.94,West,265,0.0,0.0,93,0.00,,---,0.00,VWS V14.01,2013-10-24 11:25:00,
2013-10-24 04:30:00,47.8,45.9,29.95,West,265,0.0,0.0,93,0.00,,---,0.00,VWS V14.01,2013-10-24 11:30:00,
2013-10-24 04:35:00,47.8,45.9,29.95,West,265,0.0,0.0,93,0.00,,---,0.00,VWS V14.01,2013-10-24 11:35:00,
2013-10-24 04:40:00,47.9,46.0,29.95,West,265,0.0,0.0,93,0.00,,---,0.00,VWS V14.01,2013-10-24 11:40:00,
2013-10-24 04:45:00,47.9,46.0,29.95,West,265,0.0,0.0,93,0.00,,---,0.00,VWS V14.01,2013-10-24 11:45:00,
2013-10-24 04:50:00,47.9,46.0,29.95,West,265,0.0,0.0,93,0.00,,---,0.00,VWS V14.01,2013-10-24 11:50:00,
2013-10-24 04:55:00,47.9,46.0,29.96,West,265,0.0,0.0,93,0.00,,---,0.00,VWS V14.01,2013-10-24 11:55:00,
2013-10-24 05:00:00,47.9,46.0,29.95,West,265,0.0,0.0,93,0.00,,---,0.00,VWS V14.01,2013-10-24 12:00:00,
2013-10-24 05:05:00,47.8,45.9,29.96,West,265,0.0,0.0,93,0.00,,---,0.00,VWS V14.01,2013-10-24 12:05:00,
2013-10-24 05:10:00,47.8,45.9,29.96,West,265,0.0,0.0,93,0.00,,---,0.00,VWS V14.01,2013-10-24 12:10:00,
2013-10-24 05:15:00,47.8,45.9,29.95,West,265,0.0,0.0,93,0.00,,---,0.00,VWS V14.01,2013-10-24 12:15:00,
2013-10-24 05:20:00,47.7,45.8,29.96,WSW,256,0.0,0.0,93,0.00,,---,0.00,VWS V14.01,2013-10-24 12:20:00,
2013-10-24 05:25:00,47.7,45.8,29.96,WSW,256,0.0,0.0,93,0.00,,---,0.00,VWS V14.01,2013-10-24 12:25:00,
2013-10-24 05:30:00,47.6,45.7,29.96,WSW,256,0.0,0.0,93,0.00,,---,0.00,VWS V14.01,2013-10-24 12:30:00,
2013-10-24 05:35:00,47.6,45.7,29.96,WSW,256,0.0,0.0,93,0.00,,---,0.00,VWS V14.01,2013-10-24 12:35:00,
2013-10-24 05:40:00,47.4,45.5,29.96,WSW,256,0.0,0.0,93,0.00,,---,0.00,VWS V14.01,2013-10-24 12:40:00,
2013-10-24 05:45:00,47.4,45.5,29.96,WSW,256,0.0,0.0,93,0.00,,---,0.00,VWS V14.01,2013-10-24 12:45:00,
2013-10-24 05:50:00,47.3,45.4,29.96,WSW,256,0.0,0.0,93,0.00,,---,0.00,VWS V14.01,2013-10-24 12:50:00,
2013-10-24 05:55:00,47.2,45.3,29.96,WSW,256,0.0,0.0,93,0.00,,---,0.00,VWS V14.01,2013-10-24 12:55:00,
2013-10-24 06:00:00,47.3,45.4,29.96,WSW,256,0.0,0.0,93,0.00,,---,0.00,VWS V14.01,2013-10-24 13:00:00,
2013-10-24 06:05:00,47.3,45.4,29.96,WSW,256,0.0,0.0,93,0.00,,---,0.00,VWS V14.01,2013-10-24 13:05:00,
2013-10-24 06:10:00,47.3,45.4,29.96,WSW,256,0.0,0.0,93,0.00,,---,0.00,VWS V14.01,2013-10-24 13:10:00,
2013-10-24 06:15:00,47.2,45.3,29.96,WSW,256,0.0,0.0,93,0.00,,---,0.00,VWS V14.01,2013-10-24 13:15:00,
2013-10-24 06:20:00,47.2,45.3,29.96,WSW,256,0.0,0.0,93,0.00,,---,0.00,VWS V14.01,2013-10-24 13:20:00,
2013-10-24 06:25:00,47.2,45.3,29.97,WSW,256,0.0,0.0,93,0.00,,---,0.00,VWS V14.01,2013-10-24 13:25:00,
2013-10-24 06:30:00,47.1,45.2,29.97,WSW,256,0.0,0.0,93,0.00,,---,0.00,VWS V14.01,2013-10-24 13:30:00,
2013-10-24 06:35:00,47.0,45.1,29.97,WSW,256,0.0,0.0,93,0.00,,---,0.00,VWS V14.01,2013-10-24 13:35:00,
2013-10-24 06:40:00,46.9,45.0,29.97,WSW,256,0.0,0.0,93,0.00,,---,0.00,VWS V14.01,2013-10-24 13:40:00,
2013-10-24 06:45:00,46.9,45.0,29.97,WSW,256,0.0,0.0,93,0.00,,---,0.00,VWS V14.01,2013-10-24 13:45:00,
2013-10-24 06:50:00,46.9,45.0,29.97,WSW,256,0.0,0.0,93,0.00,,---,0.00,VWS V14.01,2013-10-24 13:50:00,
2013-10-24 06:55:00,46.9,45.0,29.97,WSW,256,0.0,0.0,93,0.00,,---,0.00,VWS V14.01,2013-10-24 13:55:00,
2013-10-24 07:00:00,46.9,45.0,29.97,WSW,256,0.0,0.0,93,0.00,,---,0.00,VWS V14.01,2013-10-24 14:00:00,
2013-10-24 07:05:00,46.9,45.0,29.97,WSW,256,0.0,0.0,93,0.00,,---,0.00,VWS V14.01,2013-10-24 14:05:00,
2013-10-24 07:10:00,46.9,45.0,29.97,WSW,256,0.0,0.0,93,0.00,,---,0.00,VWS V14.01,2013-10-24 14:10:00,
2013-10-24 07:15:00,46.8,44.9,29.97,WSW,256,0.0,0.0,93,0.00,,---,0.00,VWS V14.01,2013-10-24 14:15:00,
2013-10-24 07:20:00,46.8,44.9,29.97,WSW,256,0.0,0.0,93,0.00,,---,0.00,VWS V14.01,2013-10-24 14:20:00,
2013-10-24 07:25:00,46.8,44.9,29.97,WSW,256,0.0,0.0,93,0.00,,---,0.00,VWS V14.01,2013-10-24 14:25:00,
2013-10-24 07:30:00,46.7,44.8,29.97,WSW,256,0.0,0.0,93,0.00,,---,0.00,VWS V14.01,2013-10-24 14:30:00,
2013-10-24 07:35:00,46.7,44.8,29.98,WSW,256,0.0,0.0,93,0.00,,---,0.00,VWS V14.01,2013-10-24 14:35:00,
2013-10-24 07:40:00,46.8,44.9,29.98,WSW,256,0.0,0.0,93,0.00,,---,0.00,VWS V14.01,2013-10-24 14:40:00,
2013-10-24 07:45:00,46.8,44.9,29.98,WSW,256,0.0,0.0,93,0.00,,---,0.00,VWS V14.01,2013-10-24 14:45:00,
2013-10-24 07:50:00,46.8,45.2,29.98,WSW,256,0.0,0.0,94,0.00,,---,0.00,VWS V14.01,2013-10-24 14:50:00,
2013-10-24 07:55:00,46.9,45.3,29.99,WSW,256,0.0,0.0,94,0.00,,---,0.00,VWS V14.01,2013-10-24 14:55:00,
2013-10-24 08:00:00,46.9,45.3,29.99,WSW,256,0.0,0.0,94,0.00,,---,0.00,VWS V14.01,2013-10-24 15:00:00,
2013-10-24 08:05:00,47.0,45.4,29.99,WSW,256,0.0,0.0,94,0.00,,---,0.00,VWS V14.01,2013-10-24 15:05:00,
2013-10-24 08:10:00,47.1,45.5,29.99,WSW,256,0.0,0.0,94,0.00,,---,0.00,VWS V14.01,2013-10-24 15:10:00,
2013-10-24 08:15:00,47.1,45.5,29.99,WSW,256,0.0,0.0,94,0.00,,---,0.00,VWS V14.01,2013-10-24 15:15:00,
2013-10-24 08:20:00,47.2,45.6,29.99,WSW,256,0.0,0.0,94,0.00,,---,0.00,VWS V14.01,2013-10-24 15:20:00,
2013-10-24 08:25:00,47.2,45.6,30.00,WSW,256,0.0,0.0,94,0.00,,---,0.00,VWS V14.01,2013-10-24 15:25:00,
2013-10-24 08:30:00,47.2,45.6,30.00,WSW,256,0.0,0.0,94,0.00,,---,0.00,VWS V14.01,2013-10-24 15:30:00,
2013-10-24 08:35:00,47.3,45.7,30.00,WSW,256,0.0,0.0,94,0.00,,---,0.00,VWS V14.01,2013-10-24 15:35:00,
2013-10-24 08:40:00,47.7,46.1,30.00,SW,227,0.0,0.0,94,0.00,,---,0.00,VWS V14.01,2013-10-24 15:40:00,
2013-10-24 08:45:00,48.1,46.5,30.00,SSE,147,0.0,0.0,94,0.00,,---,0.00,VWS V14.01,2013-10-24 15:45:00,
2013-10-24 08:50:00,48.5,46.9,30.00,SE,132,0.0,0.0,94,0.00,,---,0.00,VWS V14.01,2013-10-24 15:50:00,
2013-10-24 08:55:00,48.8,47.2,30.01,SE,132,0.0,0.0,94,0.00,,---,0.00,VWS V14.01,2013-10-24 15:55:00,
2013-10-24 09:00:00,49.2,47.5,30.01,SE,132,0.0,0.0,94,0.00,,---,0.00,VWS V14.01,2013-10-24 16:00:00,
2013-10-24 09:05:00,49.5,47.8,30.00,NE,49,0.0,0.0,94,0.00,,---,0.00,VWS V14.01,2013-10-24 16:05:00,
2013-10-24 09:10:00,49.9,48.2,30.01,NE,49,0.0,1.0,94,0.00,,---,0.00,VWS V14.01,2013-10-24 16:10:00,
2013-10-24 09:15:00,50.1,48.4,30.01,NE,49,0.0,0.0,94,0.00,,---,0.00,VWS V14.01,2013-10-24 16:15:00,
2013-10-24 09:20:00,50.3,48.6,30.01,WNW,286,0.0,2.0,94,0.00,,---,0.00,VWS V14.01,2013-10-24 16:20:00,
2013-10-24 09:25:00,50.5,48.6,30.01,West,276,0.0,1.0,93,0.00,,---,0.00,VWS V14.01,2013-10-24 16:25:00,
2013-10-24 09:30:00,50.7,48.8,30.01,West,276,0.0,1.0,93,0.00,,---,0.00,VWS V14.01,2013-10-24 16:30:00,
2013-10-24 09:35:00,51.2,49.0,30.01,West,276,0.0,1.0,92,0.00,,---,0.00,VWS V14.01,2013-10-24 16:35:00,
2013-10-24 09:40:00,51.8,49.3,30.01,NNW,348,2.0,5.0,91,0.00,,---,0.00,VWS V14.01,2013-10-24 16:40:00,
2013-10-24 09:45:00,52.5,49.4,30.01,East,91,1.0,6.0,89,0.00,,---,0.00,VWS V14.01,2013-10-24 16:45:00,
2013-10-24 09:50:00,54.0,49.9,30.01,East,79,5.0,6.0,86,0.00,,---,0.00,VWS V14.01,2013-10-24 16:50:00,
2013-10-24 09:55:00,54.9,49.8,30.02,ENE,74,0.0,7.0,83,0.00,,---,0.00,VWS V14.01,2013-10-24 16:55:00,
2013-10-24 10:00:00,55.2,49.8,30.02,East,100,0.0,9.0,82,0.00,,---,0.00,VWS V14.01,2013-10-24 17:00:00,
2013-10-24 10:05:00,55.6,49.9,30.02,East,92,3.0,5.0,81,0.00,,---,0.00,VWS V14.01,2013-10-24 17:05:00,
2013-10-24 10:10:00,56.3,50.2,30.02,East,88,5.0,5.0,80,0.00,,---,0.00,VWS V14.01,2013-10-24 17:10:00,
2013-10-24 10:15:00,56.9,49.8,30.02,East,87,4.0,5.0,77,0.00,,---,0.00,VWS V14.01,2013-10-24 17:15:00,
2013-10-24 10:20:00,57.7,49.8,30.02,ESE,119,2.0,7.0,75,0.00,,---,0.00,VWS V14.01,2013-10-24 17:20:00,
2013-10-24 10:25:00,58.5,49.5,30.02,ENE,65,3.0,6.0,72,0.00,,---,0.00,VWS V14.01,2013-10-24 17:25:00,
2013-10-24 10:30:00,59.0,49.6,30.02,ESE,103,2.0,6.0,71,0.00,,---,0.00,VWS V14.01,2013-10-24 17:30:00,
2013-10-24 10:35:00,59.4,49.2,30.01,East,98,1.0,6.0,69,0.00,,---,0.00,VWS V14.01,2013-10-24 17:35:00,
2013-10-24 10:40:00,59.8,49.2,30.02,ESE,113,3.0,6.0,68,0.00,,---,0.00,VWS V14.01,2013-10-24 17:40:00,
2013-10-24 10:45:00,60.3,49.7,30.02,ENE,68,2.0,3.0,68,0.00,,---,0.00,VWS V14.01,2013-10-24 17:45:00,
2013-10-24 10:50:00,60.9,49.9,30.02,ESE,113,3.0,5.0,67,0.00,,---,0.00,VWS V14.01,2013-10-24 17:50:00,
2013-10-24 10:55:00,61.0,49.6,30.02,ENE,76,3.0,6.0,66,0.00,,---,0.00,VWS V14.01,2013-10-24 17:55:00,
2013-10-24 11:00:00,60.7,49.3,30.02,SE,128,1.0,10.0,66,0.00,,---,0.00,VWS V14.01,2013-10-24 18:00:00,
2013-10-24 11:05:00,60.6,49.2,30.03,East,91,1.0,7.0,66,0.00,,---,0.00,VWS V14.01,2013-10-24 18:05:00,
2013-10-24 11:10:00,60.6,49.2,30.03,ESE,123,0.0,7.0,66,0.00,,---,0.00,VWS V14.01,2013-10-24 18:10:00,
2013-10-24 11:15:00,60.4,49.4,30.03,West,268,0.0,4.0,67,0.00,,---,0.00,VWS V14.01,2013-10-24 18:15:00,
2013-10-24 11:20:00,60.7,49.3,30.03,SSW,213,1.0,5.0,66,0.00,,---,0.00,VWS V14.01,2013-10-24 18:20:00,
2013-10-24 11:25:00,60.7,49.3,30.03,ESE,105,2.0,2.0,66,0.00,,---,0.00,VWS V14.01,2013-10-24 18:25:00,
2013-10-24 11:30:00,60.6,49.2,30.03,ESE,109,0.0,4.0,66,0.00,,---,0.00,VWS V14.01,2013-10-24 18:30:00,
2013-10-24 11:35:00,60.8,49.0,30.03,SW,229,0.0,6.0,65,0.00,,---,0.00,VWS V14.01,2013-10-24 18:35:00,
2013-10-24 11:40:00,60.7,49.3,30.03,SW,214,0.0,6.0,66,0.00,,---,0.00,VWS V14.01,2013-10-24 18:40:00,
2013-10-24 11:45:00,60.7,49.3,30.03,NW,322,0.0,5.0,66,0.00,,---,0.00,VWS V14.01,2013-10-24 18:45:00,
2013-10-24 11:50:00,60.7,49.3,30.03,SE,124,6.0,6.0,66,0.00,,---,0.00,VWS V14.01,2013-10-24 18:50:00,
2013-10-24 11:55:00,61.3,49.5,30.03,NNE,32,0.0,2.0,65,0.00,,---,0.00,VWS V14.01,2013-10-24 18:55:00,
2013-10-24 12:00:00,61.7,49.0,30.03,ENE,63,0.0,4.0,63,0.00,,---,0.00,VWS V14.01,2013-10-24 19:00:00,
2013-10-24 12:05:00,61.7,49.0,30.04,NW,309,2.0,8.0,63,0.00,,---,0.00,VWS V14.01,2013-10-24 19:05:00,
2013-10-24 12:10:00,61.4,48.3,30.04,ESE,117,0.0,8.0,62,0.00,,---,0.00,VWS V14.01,2013-10-24 19:10:00,
2013-10-24 12:15:00,61.2,48.5,30.04,ESE,122,3.0,10.0,63,0.00,,---,0.00,VWS V14.01,2013-10-24 19:15:00,
2013-10-24 12:20:00,61.3,49.0,30.03,East,94,11.0,11.0,64,0.00,,---,0.00,VWS V14.01,2013-10-24 19:20:00,
2013-10-24 12:25:00,61.4,48.7,30.04,SE,133,1.0,6.0,63,0.00,,---,0.00,VWS V14.01,2013-10-24 19:25:00,
2013-10-24 12:30:00,61.4,48.7,30.03,NW,311,2.0,6.0,63,0.00,,---,0.00,VWS V14.01,2013-10-24 19:30:00,
2013-10-24 12:35:00,61.2,48.5,30.03,SE,140,0.0,4.0,63,0.00,,---,0.00,VWS V14.01,2013-10-24 19:35:00,
2013-10-24 12:40:00,61.4,48.7,30.03,ESE,123,1.0,5.0,63,0.00,,---,0.00,VWS V14.01,2013-10-24 19:40:00,
2013-10-24 12:45:00,61.6,48.5,30.03,ESE,106,1.0,7.0,62,0.00,,---,0.00,VWS V14.01,2013-10-24 19:45:00,
2013-10-24 12:50:00,61.7,48.6,30.03,SE,127,3.0,7.0,62,0.00,,---,0.00,VWS V14.01,2013-10-24 19:50:00,
2013-10-24 12:55:00,62.1,48.5,30.03,SE,135,2.0,6.0,61,0.00,,---,0.00,VWS V14.01,2013-10-24 19:55:00,
2013-10-24 13:00:00,62.1,48.5,30.03,SE,125,2.0,7.0,61,0.00,,---,0.00,VWS V14.01,2013-10-24 20:00:00,
2013-10-24 13:05:00,62.2,48.6,30.03,SSE,150,0.0,5.0,61,0.00,,---,0.00,VWS V14.01,2013-10-24 20:05:00,
2013-10-24 13:10:00,62.1,48.5,30.02,SE,126,0.0,5.0,61,0.00,,---,0.00,VWS V14.01,2013-10-24 20:10:00,
2013-10-24 13:15:00,62.0,48.8,30.02,ESE,115,2.0,6.0,62,0.00,,---,0.00,VWS V14.01,2013-10-24 20:15:00,
2013-10-24 13:20:00,62.0,48.8,30.02,SSE,154,2.0,7.0,62,0.00,,---,0.00,VWS V14.01,2013-10-24 20:20:00,
2013-10-24 13:25:00,61.8,48.7,30.02,North,355,0.0,4.0,62,0.00,,---,0.00,VWS V14.01,2013-10-24 20:25:00,
2013-10-24 13:30:00,61.6,48.5,30.01,SE,132,0.0,7.0,62,0.00,,---,0.00,VWS V14.01,2013-10-24 20:30:00,
2013-10-24 13:35:00,61.5,48.4,30.01,South,189,1.0,9.0,62,0.00,,---,0.00,VWS V14.01,2013-10-24 20:35:00,
2013-10-24 13:40:00,61.1,48.4,30.02,ESE,105,6.0,9.0,63,0.00,,---,0.00,VWS V14.01,2013-10-24 20:40:00,
2013-10-24 13:45:00,60.8,48.1,30.01,WSW,241,0.0,5.0,63,0.00,,---,0.00,VWS V14.01,2013-10-24 20:45:00,
2013-10-24 13:50:00,60.5,48.3,30.01,SE,124,5.0,8.0,64,0.00,,---,0.00,VWS V14.01,2013-10-24 20:50:00,
2013-10-24 13:55:00,60.5,48.3,30.01,SE,132,3.0,4.0,64,0.00,,---,0.00,VWS V14.01,2013-10-24 20:55:00,
2013-10-24 14:00:00,60.6,48.4,30.01,ESE,120,4.0,7.0,64,0.00,,---,0.00,VWS V14.01,2013-10-24 21:00:00,
2013-10-24 14:05:00,60.7,48.5,30.00,East,95,6.0,8.0,64,0.00,,---,0.00,VWS V14.01,2013-10-24 21:05:00,
2013-10-24 14:10:00,60.8,48.6,30.00,SE,132,1.0,8.0,64,0.00,,---,0.00,VWS V14.01,2013-10-24 21:10:00,
2013-10-24 14:15:00,60.8,48.6,30.00,East,101,2.0,4.0,64,0.00,,---,0.00,VWS V14.01,2013-10-24 21:15:00,
2013-10-24 14:20:00,60.8,48.6,30.00,ESE,122,1.0,7.0,64,0.00,,---,0.00,VWS V14.01,2013-10-24 21:20:00,
2013-10-24 14:25:00,60.9,48.7,30.00,South,173,0.0,5.0,64,0.00,,---,0.00,VWS V14.01,2013-10-24 21:25:00,
2013-10-24 14:30:00,60.9,48.7,30.00,ESE,114,2.0,8.0,64,0.00,,---,0.00,VWS V14.01,2013-10-24 21:30:00,
2013-10-24 14:35:00,60.9,48.7,29.99,SE,134,5.0,5.0,64,0.00,,---,0.00,VWS V14.01,2013-10-24 21:35:00,
2013-10-24 14:40:00,61.0,48.8,30.00,East,80,0.0,5.0,64,0.00,,---,0.00,VWS V14.01,2013-10-24 21:40:00,
2013-10-24 14:45:00,61.2,48.9,29.99,ESE,111,0.0,2.0,64,0.00,,---,0.00,VWS V14.01,2013-10-24 21:45:00,
2013-10-24 14:50:00,61.5,48.8,29.99,SE,138,1.0,6.0,63,0.00,,---,0.00,VWS V14.01,2013-10-24 21:50:00,
2013-10-24 14:55:00,61.6,48.5,29.99,ESE,113,0.0,4.0,62,0.00,,---,0.00,VWS V14.01,2013-10-24 21:55:00,
2013-10-24 15:00:00,61.7,48.6,29.99,ESE,108,2.0,5.0,62,0.00,,---,0.00,VWS V14.01,2013-10-24 22:00:00,
2013-10-24 15:05:00,61.7,48.6,29.99,SE,136,1.0,5.0,62,0.00,,---,0.00,VWS V14.01,2013-10-24 22:05:00,
2013-10-24 15:10:00,61.6,48.5,29.99,SE,128,1.0,5.0,62,0.00,,---,0.00,VWS V14.01,2013-10-24 22:10:00,
2013-10-24 15:15:00,61.5,48.4,29.99,ESE,119,0.0,3.0,62,0.00,,---,0.00,VWS V14.01,2013-10-24 22:15:00,
2013-10-24 15:20:00,61.6,48.5,29.99,ESE,117,0.0,3.0,62,0.00,,---,0.00,VWS V14.01,2013-10-24 22:20:00,
2013-10-24 15:25:00,61.8,48.7,29.99,SE,127,0.0,2.0,62,0.00,,---,0.00,VWS V14.01,2013-10-24 22:25:00,
2013-10-24 15:30:00,61.8,48.7,29.99,SE,140,0.0,5.0,62,0.00,,---,0.00,VWS V14.01,2013-10-24 22:30:00,
2013-10-24 15:35:00,61.9,48.8,29.99,ENE,76,2.0,4.0,62,0.00,,---,0.00,VWS V14.01,2013-10-24 22:35:00,
2013-10-24 15:39:00,62.1,48.9,29.99,ESE,121,2.0,4.0,62,0.00,,---,0.00,VWS V14.01,2013-10-24 22:39:00,
2013-10-24 15:40:00,62.1,48.5,29.99,SE,130,0.0,4.0,61,0.00,,---,0.00,VWS V14.01,2013-10-24 22:40:00,
2013-10-24 15:44:00,62.2,48.6,29.99,SE,131,0.0,4.0,61,0.00,,---,0.00,VWS V14.01,2013-10-24 22:44:00,
2013-10-24 15:49:00,62.2,48.6,29.99,East,98,1.0,4.0,61,0.00,,---,0.00,VWS V14.01,2013-10-24 22:49:00,
2013-10-24 15:50:00,62.2,48.6,29.99,SE,131,3.0,5.0,61,0.00,,---,0.00,VWS V14.01,2013-10-24 22:50:00,
2013-10-24 15:54:00,62.3,48.7,29.99,ENE,72,1.0,3.0,61,0.00,,---,0.00,VWS V14.01,2013-10-24 22:54:00,
2013-10-24 15:59:00,62.4,48.8,29.99,ESE,112,6.0,6.0,61,0.00,,---,0.00,VWS V14.01,2013-10-24 22:59:00,
2013-10-24 16:00:00,62.4,48.8,29.99,SE,133,0.0,6.0,61,0.00,,---,0.00,VWS V14.01,2013-10-24 23:00:00,
2013-10-24 16:04:00,62.5,48.9,29.99,East,96,1.0,2.0,61,0.00,,---,0.00,VWS V14.01,2013-10-24 23:04:00,
2013-10-24 16:09:00,62.5,48.9,29.99,ESE,119,0.0,3.0,61,0.00,,---,0.00,VWS V14.01,2013-10-24 23:09:00,
2013-10-24 16:10:00,62.5,48.9,29.99,East,99,0.0,3.0,61,0.00,,---,0.00,VWS V14.01,2013-10-24 23:10:00,
2013-10-24 16:14:00,62.5,48.9,29.99,SE,131,4.0,6.0,61,0.00,,---,0.00,VWS V14.01,2013-10-24 23:14:00,
2013-10-24 16:19:00,62.5,48.9,29.99,SE,127,0.0,6.0,61,0.00,,---,0.00,VWS V14.01,2013-10-24 23:19:00,
2013-10-24 16:20:00,62.5,48.9,29.99,ESE,115,2.0,6.0,61,0.00,,---,0.00,VWS V14.01,2013-10-24 23:20:00,
2013-10-24 16:24:00,62.5,48.9,29.99,SE,132,0.0,3.0,61,0.00,,---,0.00,VWS V14.01,2013-10-24 23:24:00,
2013-10-24 16:29:00,62.4,48.8,29.99,ESE,112,0.0,9.0,61,0.00,,---,0.00,VWS V14.01,2013-10-24 23:29:00,
2013-10-24 16:30:00,62.3,48.7,29.99,ESE,121,4.0,9.0,61,0.00,,---,0.00,VWS V14.01,2013-10-24 23:30:00,
2013-10-24 16:34:00,62.2,48.2,29.98,ESE,119,0.0,5.0,60,0.00,,---,0.00,VWS V14.01,2013-10-24 23:34:00,
2013-10-24 16:39:00,62.1,48.1,29.99,East,101,2.0,5.0,60,0.00,,---,0.00,VWS V14.01,2013-10-24 23:39:00,
2013-10-24 16:40:00,62.1,48.5,29.99,ESE,111,0.0,5.0,61,0.00,,---,0.00,VWS V14.01,2013-10-24 23:40:00,
2013-10-24 16:44:00,62.1,48.5,29.99,ESE,115,0.0,2.0,61,0.00,,---,0.00,VWS V14.01,2013-10-24 23:44:00,
2013-10-24 16:49:00,62.1,48.5,29.98,ESE,114,0.0,2.0,61,0.00,,---,0.00,VWS V14.01,2013-10-24 23:49:00,
2013-10-24 16:50:00,62.1,48.5,29.99,East,88,3.0,3.0,61,0.00,,---,0.00,VWS V14.01,2013-10-24 23:50:00,
2013-10-24 16:54:00,62.1,48.5,29.99,ESE,115,0.0,3.0,61,0.00,,---,0.00,VWS V14.01,2013-10-24 23:54:00,
2013-10-24 16:59:00,62.0,48.0,29.99,ESE,105,1.0,7.0,60,0.00,,---,0.00,VWS V14.01,2013-10-24 23:59:00,
2013-10-24 17:00:00,61.9,47.9,29.99,ESE,123,0.0,7.0,60,0.00,,---,0.00,VWS V14.01,2013-10-25 00:00:00,
2013-10-24 17:04:00,61.8,48.2,29.99,ESE,111,0.0,2.0,61,0.00,,---,0.00,VWS V14.01,2013-10-25 00:04:00,
2013-10-24 17:09:00,61.7,48.1,29.99,ESE,117,0.0,2.0,61,0.00,,---,0.00,VWS V14.01,2013-10-25 00:09:00,
2013-10-24 17:10:00,61.6,48.0,29.99,ESE,113,0.0,2.0,61,0.00,,---,0.00,VWS V14.01,2013-10-25 00:10:00,
2013-10-24 17:14:00,61.4,47.8,29.98,ESE,117,0.0,3.0,61,0.00,,---,0.00,VWS V14.01,2013-10-25 00:14:00,
2013-10-24 17:19:00,61.1,47.6,29.99,ESE,122,0.0,3.0,61,0.00,,---,0.00,VWS V14.01,2013-10-25 00:19:00,
2013-10-24 17:20:00,61.0,47.5,29.99,ESE,122,1.0,3.0,61,0.00,,---,0.00,VWS V14.01,2013-10-25 00:20:00,
2013-10-24 17:24:00,60.8,47.7,29.99,ESE,122,0.0,1.0,62,0.00,,---,0.00,VWS V14.01,2013-10-25 00:24:00,
2013-10-24 17:29:00,60.4,47.8,29.99,ESE,122,1.0,1.0,63,0.00,,---,0.00,VWS V14.01,2013-10-25 00:29:00,
2013-10-24 17:30:00,60.2,47.6,29.99,SE,126,1.0,1.0,63,0.00,,---,0.00,VWS V14.01,2013-10-25 00:30:00,
2013-10-24 17:34:00,60.0,47.8,30.00,SE,126,0.0,1.0,64,0.00,,---,0.00,VWS V14.01,2013-10-25 00:34:00,
2013-10-24 17:39:00,59.6,47.4,29.99,SE,126,0.0,1.0,64,0.00,,---,0.00,VWS V14.01,2013-10-25 00:39:00,
2013-10-24 17:40:00,59.5,47.3,30.00,SE,125,0.0,1.0,64,0.00,,---,0.00,VWS V14.01,2013-10-25 00:40:00,
2013-10-24 17:44:00,59.4,47.7,30.00,SE,126,0.0,0.0,65,0.00,,---,0.00,VWS V14.01,2013-10-25 00:44:00,
2013-10-24 17:49:00,59.0,47.7,30.00,SE,125,0.0,0.0,66,0.00,,---,0.00,VWS V14.01,2013-10-25 00:49:00,
2013-10-24 17:50:00,59.0,47.7,30.00,SE,126,0.0,0.0,66,0.00,,---,0.00,VWS V14.01,2013-10-25 00:50:00,
2013-10-24 17:54:00,59.0,48.1,30.00,SE,125,0.0,0.0,67,0.00,,---,0.00,VWS V14.01,2013-10-25 00:54:00,
2013-10-24 17:59:00,58.7,47.8,30.00,SE,125,0.0,0.0,67,0.00,,---,0.00,VWS V14.01,2013-10-25 00:59:00,
2013-10-24 18:00:00,58.6,47.7,30.00,SE,126,0.0,0.0,67,0.00,,---,0.00,VWS V14.01,2013-10-25 01:00:00,
2013-10-24 18:04:00,58.4,47.9,30.00,SE,125,0.0,0.0,68,0.00,,---,0.00,VWS V14.01,2013-10-25 01:04:00,
2013-10-24 18:09:00,57.8,47.3,30.00,SE,126,0.0,1.0,68,0.00,,---,0.00,VWS V14.01,2013-10-25 01:09:00,
2013-10-24 18:10:00,57.5,47.0,30.00,SE,125,0.0,1.0,68,0.00,,---,0.00,VWS V14.01,2013-10-25 01:10:00,
2013-10-24 18:14:00,57.1,47.0,30.00,SE,125,0.0,0.0,69,0.00,,---,0.00,VWS V14.01,2013-10-25 01:14:00,
2013-10-24 18:19:00,56.6,46.9,30.00,SE,126,0.0,1.0,70,0.00,,---,0.00,VWS V14.01,2013-10-25 01:19:00,
2013-10-24 18:20:00,56.4,47.1,30.00,SE,126,0.0,1.0,71,0.00,,---,0.00,VWS V14.01,2013-10-25 01:20:00,
2013-10-24 18:24:00,56.2,46.9,30.00,SE,126,0.0,0.0,71,0.00,,---,0.00,VWS V14.01,2013-10-25 01:24:00,
2013-10-24 18:29:00,56.0,47.5,30.01,SE,125,0.0,0.0,73,0.00,,---,0.00,VWS V14.01,2013-10-25 01:29:00,
2013-10-24 18:30:00,55.9,47.4,30.00,SE,125,0.0,0.0,73,0.00,,---,0.00,VWS V14.01,2013-10-25 01:30:00,
2013-10-24 18:34:00,55.7,46.8,30.01,SE,125,0.0,0.0,72,0.00,,---,0.00,VWS V14.01,2013-10-25 01:34:00,
2013-10-24 18:39:00,55.3,46.4,30.00,SE,126,0.0,0.0,72,0.00,,---,0.00,VWS V14.01,2013-10-25 01:39:00,
2013-10-24 18:40:00,55.1,46.2,30.01,SE,126,0.0,0.0,72,0.00,,---,0.00,VWS V14.01,2013-10-25 01:40:00,
2013-10-24 18:44:00,54.8,46.3,30.01,SE,131,0.0,0.0,73,0.00,,---,0.00,VWS V14.01,2013-10-25 01:44:00,
2013-10-24 18:49:00,54.3,45.8,30.01,SE,131,0.0,0.0,73,0.00,,---,0.00,VWS V14.01,2013-10-25 01:49:00,
2013-10-24 18:50:00,54.2,46.1,30.01,SE,131,0.0,0.0,74,0.00,,---,0.00,VWS V14.01,2013-10-25 01:50:00,
2013-10-24 18:54:00,54.0,45.9,30.01,SE,131,0.0,0.0,74,0.00,,---,0.00,VWS V14.01,2013-10-25 01:54:00,
2013-10-24 18:59:00,53.6,45.5,30.02,SE,131,0.0,0.0,74,0.00,,---,0.00,VWS V14.01,2013-10-25 01:59:00,
2013-10-24 19:00:00,53.5,45.8,30.02,SE,131,0.0,0.0,75,0.00,,---,0.00,VWS V14.01,2013-10-25 02:00:00,
2013-10-24 19:04:00,53.3,45.6,30.02,SE,131,0.0,0.0,75,0.00,,---,0.00,VWS V14.01,2013-10-25 02:04:00,
2013-10-24 19:09:00,53.0,45.7,30.02,SE,131,0.0,0.0,76,0.00,,---,0.00,VWS V14.01,2013-10-25 02:09:00,
2013-10-24 19:10:00,52.9,45.5,30.02,SE,131,0.0,0.0,76,0.00,,---,0.00,VWS V14.01,2013-10-25 02:10:00,
2013-10-24 19:14:00,52.6,45.3,30.02,SE,131,0.0,0.0,76,0.00,,---,0.00,VWS V14.01,2013-10-25 02:14:00,
2013-10-24 19:19:00,52.3,45.3,30.02,SE,131,0.0,0.0,77,0.00,,---,0.00,VWS V14.01,2013-10-25 02:19:00,
2013-10-24 19:20:00,52.2,45.6,30.02,SE,131,0.0,0.0,78,0.00,,---,0.00,VWS V14.01,2013-10-25 02:20:00,
2013-10-24 19:24:00,52.1,45.5,30.02,SE,131,0.0,0.0,78,0.00,,---,0.00,VWS V14.01,2013-10-25 02:24:00,
2013-10-24 19:29:00,51.9,45.6,30.02,SE,131,0.0,0.0,79,0.00,,---,0.00,VWS V14.01,2013-10-25 02:29:00,
2013-10-24 19:30:00,51.9,45.6,30.02,SE,131,0.0,0.0,79,0.00,,---,0.00,VWS V14.01,2013-10-25 02:30:00,
2013-10-24 19:34:00,51.8,45.5,30.02,SE,131,0.0,0.0,79,0.00,,---,0.00,VWS V14.01,2013-10-25 02:34:00,
2013-10-24 19:39:00,51.6,45.3,30.02,SE,131,0.0,0.0,79,0.00,,---,0.00,VWS V14.01,2013-10-25 02:39:00,
2013-10-24 19:40:00,51.5,45.2,30.02,SE,131,0.0,0.0,79,0.00,,---,0.00,VWS V14.01,2013-10-25 02:40:00,
2013-10-24 19:44:00,51.4,45.5,30.02,SE,131,0.0,0.0,80,0.00,,---,0.00,VWS V14.01,2013-10-25 02:44:00,
2013-10-24 19:49:00,51.2,45.2,30.02,SE,131,0.0,0.0,80,0.00,,---,0.00,VWS V14.01,2013-10-25 02:49:00,
2013-10-24 19:50:00,51.1,45.2,30.02,SE,131,0.0,0.0,80,0.00,,---,0.00,VWS V14.01,2013-10-25 02:50:00,
2013-10-24 19:54:00,51.0,45.1,30.02,SE,131,0.0,0.0,80,0.00,,---,0.00,VWS V14.01,2013-10-25 02:54:00,
2013-10-24 19:59:00,50.7,45.1,30.02,SE,131,0.0,0.0,81,0.00,,---,0.00,VWS V14.01,2013-10-25 02:59:00,
2013-10-24 20:00:00,50.6,45.0,30.02,SE,131,0.0,0.0,81,0.00,,---,0.00,VWS V14.01,2013-10-25 03:00:00,
2013-10-24 20:04:00,50.4,44.8,30.02,SE,131,0.0,0.0,81,0.00,,---,0.00,VWS V14.01,2013-10-25 03:04:00,
2013-10-24 20:09:00,50.2,44.9,30.02,SE,131,0.0,0.0,82,0.00,,---,0.00,VWS V14.01,2013-10-25 03:09:00,
2013-10-24 20:10:00,50.2,44.9,30.02,SE,131,0.0,0.0,82,0.00,,---,0.00,VWS V14.01,2013-10-25 03:10:00,
2013-10-24 20:14:00,50.0,44.7,30.03,SE,131,0.0,0.0,82,0.00,,---,0.00,VWS V14.01,2013-10-25 03:14:00,
2013-10-24 20:19:00,49.9,44.6,30.03,SE,131,0.0,0.0,82,0.00,,---,0.00,VWS V14.01,2013-10-25 03:19:00,
2013-10-24 20:20:00,49.8,44.5,30.02,SE,131,0.0,0.0,82,0.00,,---,0.00,VWS V14.01,2013-10-25 03:20:00,
2013-10-24 20:24:00,49.6,44.3,30.03,SE,131,0.0,0.0,82,0.00,,---,0.00,VWS V14.01,2013-10-25 03:24:00,
2013-10-24 20:29:00,49.4,44.5,30.03,SE,131,0.0,0.0,83,0.00,,---,0.00,VWS V14.01,2013-10-25 03:29:00,
2013-10-24 20:30:00,49.3,44.4,30.03,SE,131,0.0,0.0,83,0.00,,---,0.00,VWS V14.01,2013-10-25 03:30:00,
2013-10-24 20:34:00,49.2,44.6,30.03,SE,131,0.0,0.0,84,0.00,,---,0.00,VWS V14.01,2013-10-25 03:34:00,
2013-10-24 20:39:00,49.2,44.6,30.03,SE,131,0.0,0.0,84,0.00,,---,0.00,VWS V14.01,2013-10-25 03:39:00,
2013-10-24 20:40:00,49.1,44.5,30.03,SE,131,0.0,0.0,84,0.00,,---,0.00,VWS V14.01,2013-10-25 03:40:00,
2013-10-24 20:44:00,49.1,44.5,30.03,SE,131,0.0,0.0,84,0.00,,---,0.00,VWS V14.01,2013-10-25 03:44:00,
2013-10-24 20:49:00,49.0,44.7,30.03,SE,131,0.0,0.0,85,0.00,,---,0.00,VWS V14.01,2013-10-25 03:49:00,
2013-10-24 20:50:00,49.0,44.7,30.03,SE,131,0.0,0.0,85,0.00,,---,0.00,VWS V14.01,2013-10-25 03:50:00,
2013-10-24 20:54:00,49.0,44.7,30.03,SE,131,0.0,0.0,85,0.00,,---,0.00,VWS V14.01,2013-10-25 03:54:00,
2013-10-24 20:59:00,49.0,44.7,30.03,SE,131,0.0,0.0,85,0.00,,---,0.00,VWS V14.01,2013-10-25 03:59:00,
2013-10-24 21:00:00,48.9,44.6,30.03,SE,131,0.0,0.0,85,0.00,,---,0.00,VWS V14.01,2013-10-25 04:00:00,
2013-10-24 21:01:00,48.9,44.6,30.03,SE,131,0.0,0.0,85,0.00,,---,0.00,VWS V14.01,2013-10-25 04:01:00,
2013-10-24 21:03:00,48.9,44.6,30.03,SE,131,0.0,0.0,85,0.00,,---,0.00,VWS V14.01,2013-10-25 04:03:00,
2013-10-24 21:08:00,48.7,44.4,30.03,SE,131,0.0,0.0,85,0.00,,---,0.00,VWS V14.01,2013-10-25 04:08:00,
2013-10-24 21:10:00,48.6,44.6,30.03,SE,131,0.0,0.0,86,0.00,,---,0.00,VWS V14.01,2013-10-25 04:10:00,
2013-10-24 21:13:00,48.5,44.5,30.03,SE,131,0.0,0.0,86,0.00,,---,0.00,VWS V14.01,2013-10-25 04:13:00,
2013-10-24 21:18:00,48.4,44.4,30.03,SE,131,0.0,0.0,86,0.00,,---,0.00,VWS V14.01,2013-10-25 04:18:00,
2013-10-24 21:20:00,48.3,44.3,30.04,SE,131,0.0,0.0,86,0.00,,---,0.00,VWS V14.01,2013-10-25 04:20:00,
2013-10-24 21:23:00,48.3,44.3,30.04,SE,131,0.0,0.0,86,0.00,,---,0.00,VWS V14.01,2013-10-25 04:23:00,
2013-10-24 21:28:00,48.2,44.2,30.04,SE,131,0.0,0.0,86,0.00,,---,0.00,VWS V14.01,2013-10-25 04:28:00,
2013-10-24 21:30:00,48.1,44.1,30.04,SE,131,0.0,0.0,86,0.00,,---,0.00,VWS V14.01,2013-10-25 04:30:00,
2013-10-24 21:33:00,48.0,44.0,30.04,SE,131,0.0,0.0,86,0.00,,---,0.00,VWS V14.01,2013-10-25 04:33:00,
2013-10-24 21:38:00,47.8,44.1,30.05,SE,131,0.0,0.0,87,0.00,,---,0.00,VWS V14.01,2013-10-25 04:38:00,
2013-10-24 21:40:00,47.7,44.0,30.04,SE,131,0.0,0.0,87,0.00,,---,0.00,VWS V14.01,2013-10-25 04:40:00,
2013-10-24 21:43:00,47.6,43.9,30.05,SE,131,0.0,0.0,87,0.00,,---,0.00,VWS V14.01,2013-10-25 04:43:00,
2013-10-24 21:48:00,47.4,43.7,30.05,SE,131,0.0,0.0,87,0.00,,---,0.00,VWS V14.01,2013-10-25 04:48:00,
2013-10-24 21:50:00,47.3,43.6,30.05,SE,131,0.0,0.0,87,0.00,,---,0.00,VWS V14.01,2013-10-25 04:50:00,
2013-10-24 21:53:00,47.3,43.6,30.06,SE,131,0.0,0.0,87,0.00,,---,0.00,VWS V14.01,2013-10-25 04:53:00,
2013-10-24 21:58:00,47.1,43.7,30.06,SE,131,0.0,0.0,88,0.00,,---,0.00,VWS V14.01,2013-10-25 04:58:00,
2013-10-24 22:00:00,47.0,43.6,30.06,SE,131,0.0,0.0,88,0.00,,---,0.00,VWS V14.01,2013-10-25 05:00:00,
2013-10-24 22:03:00,47.0,43.6,30.06,SE,131,0.0,0.0,88,0.00,,---,0.00,VWS V14.01,2013-10-25 05:03:00,
2013-10-24 22:08:00,46.9,43.5,30.06,SE,131,0.0,0.0,88,0.00,,---,0.00,VWS V14.01,2013-10-25 05:08:00,
2013-10-24 22:10:00,46.8,43.4,30.06,SE,131,0.0,0.0,88,0.00,,---,0.00,VWS V14.01,2013-10-25 05:10:00,
2013-10-24 22:13:00,46.8,44.6,30.06,SE,131,0.0,0.0,92,0.00,,---,0.00,VWS V14.01,2013-10-25 05:13:00,
2013-10-24 22:18:00,46.6,43.2,30.07,SE,131,0.0,0.0,88,0.00,,---,0.00,VWS V14.01,2013-10-25 05:18:00,
2013-10-24 22:20:00,46.5,43.4,30.07,SE,131,0.0,0.0,89,0.00,,---,0.00,VWS V14.01,2013-10-25 05:20:00,
2013-10-24 22:23:00,46.5,43.4,30.07,SE,131,0.0,0.0,89,0.00,,---,0.00,VWS V14.01,2013-10-25 05:23:00,
2013-10-24 22:28:00,46.4,43.3,30.07,SE,131,0.0,0.0,89,0.00,,---,0.00,VWS V14.01,2013-10-25 05:28:00,
2013-10-24 22:30:00,46.4,43.3,30.07,SE,131,0.0,0.0,89,0.00,,---,0.00,VWS V14.01,2013-10-25 05:30:00,
2013-10-24 22:33:00,46.4,43.3,30.07,SE,131,0.0,0.0,89,0.00,,---,0.00,VWS V14.01,2013-10-25 05:33:00,
2013-10-24 22:38:00,46.3,43.2,30.07,SE,131,0.0,0.0,89,0.00,,---,0.00,VWS V14.01,2013-10-25 05:38:00,
2013-10-24 22:40:00,46.2,43.1,30.07,SE,131,0.0,0.0,89,0.00,,---,0.00,VWS V14.01,2013-10-25 05:40:00,
2013-10-24 22:42:00,46.2,43.1,30.07,SE,131,0.0,0.0,89,0.00,,---,0.00,VWS V14.01,2013-10-25 05:42:00,
2013-10-24 22:47:00,46.2,43.1,30.07,SE,131,0.0,0.0,89,0.00,,---,0.00,VWS V14.01,2013-10-25 05:47:00,
2013-10-24 22:50:00,46.2,43.4,30.07,SE,131,0.0,0.0,90,0.00,,---,0.00,VWS V14.01,2013-10-25 05:50:00,
2013-10-24 22:52:00,46.2,43.4,30.07,SE,131,0.0,0.0,90,0.00,,---,0.00,VWS V14.01,2013-10-25 05:52:00,
2013-10-24 22:57:00,46.2,43.4,30.07,SE,131,0.0,0.0,90,0.00,,---,0.00,VWS V14.01,2013-10-25 05:57:00,
2013-10-24 23:00:00,46.2,43.4,30.07,SE,131,0.0,0.0,90,0.00,,---,0.00,VWS V14.01,2013-10-25 06:00:00,
2013-10-24 23:02:00,46.2,43.4,30.07,SE,131,0.0,0.0,90,0.00,,---,0.00,VWS V14.01,2013-10-25 06:02:00,
2013-10-24 23:07:00,46.1,43.3,30.08,SE,131,0.0,0.0,90,0.00,,---,0.00,VWS V14.01,2013-10-25 06:07:00,
2013-10-24 23:10:00,46.0,43.2,30.08,SE,131,0.0,0.0,90,0.00,,---,0.00,VWS V14.01,2013-10-25 06:10:00,
2013-10-24 23:12:00,46.0,43.2,30.08,SE,131,0.0,0.0,90,0.00,,---,0.00,VWS V14.01,2013-10-25 06:12:00,
2013-10-24 23:17:00,45.8,42.8,30.08,SE,131,0.0,0.0,89,0.00,,---,0.00,VWS V14.01,2013-10-25 06:17:00,
2013-10-24 23:20:00,45.7,42.7,30.08,SE,131,0.0,0.0,89,0.00,,---,0.00,VWS V14.01,2013-10-25 06:20:00,
2013-10-24 23:22:00,45.7,42.9,30.07,SE,131,0.0,0.0,90,0.00,,---,0.00,VWS V14.01,2013-10-25 06:22:00,
2013-10-24 23:27:00,45.6,42.8,30.07,SE,131,0.0,0.0,90,0.00,,---,0.00,VWS V14.01,2013-10-25 06:27:00,
2013-10-24 23:30:00,45.5,42.7,30.07,SE,131,0.0,0.0,90,0.00,,---,0.00,VWS V14.01,2013-10-25 06:30:00,
2013-10-24 23:32:00,45.5,42.7,30.07,SE,131,0.0,0.0,90,0.00,,---,0.00,VWS V14.01,2013-10-25 06:32:00,
2013-10-24 23:37:00,45.4,42.6,30.07,SE,131,0.0,0.0,90,0.00,,---,0.00,VWS V14.01,2013-10-25 06:37:00,
2013-10-24 23:40:00,45.3,42.5,30.07,SE,131,0.0,0.0,90,0.00,,---,0.00,VWS V14.01,2013-10-25 06:40:00,
2013-10-24 23:42:00,45.2,42.5,30.07,SE,131,0.0,0.0,90,0.00,,---,0.00,VWS V14.01,2013-10-25 06:42:00,
2013-10-24 23:47:00,45.1,42.3,30.07,SE,131,0.0,0.0,90,0.00,,---,0.00,VWS V14.01,2013-10-25 06:47:00,
2013-10-24 23:50:00,45.0,42.2,30.07,SE,131,0.0,0.0,90,0.00,,---,0.00,VWS V14.01,2013-10-25 06:50:00,
2013-10-24 23:52:00,45.0,42.2,30.08,SE,131,0.0,0.0,90,0.00,,---,0.00,VWS V14.01,2013-10-25 06:52:00,
2013-10-24 23:57:00,45.0,42.2,30.08,SE,131,0.0,0.0,90,0.00,,---,0.00,VWS V14.01,2013-10-25 06:57:00,